カタログに戻る

ONEWEB-0057

運用中通信PO
NORAD 45160·PAYLOAD·🇬🇧 United Kingdom

打ち上げ Feb 6, 2020 から Baikonur Cosmodrome

Loading…

次のパス (今後24時間)

TLE

最新Source: CelesTrak SupGP

元期: Sep 14, 2026, 14:02 UTC

1 45160C 20008AF  26257.58523565  .00000030  00000+0  86355-4 0  2577
2 45160  87.8911  18.4759 0002108 113.3234 355.5553 13.10371661    15

AllMySatでONEWEB-0057をリアルタイム追跡

Download on the App Store